This demonstration page uses our WeatherBlox Daily Observations layout. Learn more.

38.88101, -77.10428

Hourly Observations for January 9, 2017

Temp ( °F °C ) Dew Point ( °F °C ) Humidity (%) Winds ( mph kmh ) Pressure ( in mb ) Visibility ( mi km ) Precip ( " mm )
12:52 am 00:52 Clear 17 -8.3 -1 -18.3 45 45 WNW 6 9 30.74 1041 10 16.0934 0 0
1:52 am 01:52 Mostly Cloudy 17 -8.3 0 -17.8 47 47 WNW 6 9 30.75 1041 10 16.0934 0 0
2:52 am 02:52 Mostly Cloudy 17 -8.3 1 -17.2 49 49 WNW 7 11 30.73 1041 10 16.0934 0 0
3:52 am 03:52 Mostly Cloudy 17 -8.3 1 -17.2 49 49 WNW 6 9 30.75 1041 10 16.0934 0 0
4:52 am 04:52 Cloudy 17 -8.3 2 -16.7 51 51 WSW 5 7 30.75 1041 10 16.0934 0 0
5:52 am 05:52 Cloudy 18 -7.8 2 -16.7 49 49 W 5 7 30.76 1042 10 16.0934 0 0
6:52 am 06:52 Cloudy 18 -7.8 3 -16.1 52 52 SW 5 7 30.75 1041 10 16.0934 0 0
7:52 am 07:52 Cloudy 19 -7.2 4 -15.6 51 51 VRB 3 6 30.77 1042 10 16.0934 0 0
8:52 am 08:52 Cloudy 20 -6.7 4 -15.6 50 50 VRB 3 6 30.8 1043 10 16.0934 0 0
9:52 am 09:52 Cloudy 21 -6.1 3 -16.1 45 45 S 5 7 30.8 1043 10 16.0934 0 0
10:52 am 10:52 Mostly Cloudy 23 -5 7 -13.9 50 50 S 8 13 30.79 1043 10 16.0934 0 0
11:52 am 11:52 Cloudy 24 -4.4 4 -15.6 42 42 S 12 19 30.74 1041 10 16.0934 0 0
12:52 pm 12:52 Mostly Cloudy 25 -3.9 5 -15 42 42 S 12 19 30.71 1040 10 16.0934 0 0
1:52 pm 13:52 Mostly Cloudy 28 -2.2 4 -15.6 35 35 S 10 17 30.69 1039 10 16.0934 0 0
2:52 pm 14:52 Mostly Cloudy 28 -2.2 5 -15 37 37 S 15 24 30.67 1039 10 16.0934 0 0
3:52 pm 15:52 Mostly Cloudy 26 -3.3 4 -15.6 38 38 S 14 22 30.66 1038 10 16.0934 0 0
4:52 pm 16:52 Partly Cloudy 24 -4.4 5 -15 44 44 S 12 19 30.68 1039 10 16.0934 0 0
5:52 pm 17:52 Mostly Cloudy 24 -4.4 5 -15 44 44 SSW 12 19 30.67 1039 10 16.0934 0 0
6:52 pm 18:52 Partly Cloudy 23 -5 5 -15 46 46 SSW 12 19 30.68 1039 10 16.0934 0 0
7:52 pm 19:52 Mostly Cloudy 23 -5 6 -14.4 48 48 SSW 10 17 30.69 1039 10 16.0934 0 0
8:52 pm 20:52 Mostly Cloudy 23 -5 6 -14.4 48 48 SSW 10 17 30.67 1039 10 16.0934 0 0
9:52 pm 21:52 Mostly Cloudy 24 -4.4 8 -13.3 50 50 S 13 20 30.66 1038 10 16.0934 0 0
10:52 pm 22:52 Mostly Cloudy 23 -5 9 -12.8 55 55 S 10 17 30.65 1038 10 16.0934 0 0
11:52 pm 23:52 Mostly Cloudy 23 -5 8 -13.3 53 53 S 9 15 30.64 1038 10 16.0934 0 0

Powered by AerisWeather